DateTimeUTC,F1_A11,F1_S11,BsB_S11,BsG_S11,BsR_S11,BbsB_S11,BbsG_S11,BbsR_S11,BaB_A11,BaG_A11,BaR_A11,Tu_S11,T_S11,Uu_S11,U_S11,P_S11,T1_A11
2021-02-03T07:00:00Z,00000200,21000000,,,,,,,0000.13,0000.02,-000.12,15.5,22.8,,00.0,0630.5,30.9
2021-02-03T07:01:00Z,00000200,21000000,,,,,,,0000.33,-000.00,0000.62,15.4,22.8,,00.0,0630.5,30.8
2021-02-03T07:02:00Z,00000200,21000000,,,,,,,0000.22,0000.31,0000.18,15.4,22.8,,00.0,0630.5,30.8
2021-02-03T07:03:00Z,00000200,61000000,,,,,,,0000.10,0000.19,-000.14,15.4,22.8,,00.0,0630.5,30.8
2021-02-03T07:04:00Z,00000200,41000000,0000.81,-000.06,-000.06,0000.08,0000.16,0000.23,0000.20,0000.08,0000.09,15.7,22.6,,00.0,0631.5,30.8
2021-02-03T07:05:00Z,00000200,01000000,-000.29,-000.07,-000.09,-000.14,0000.17,-000.03,0000.39,0000.72,0000.37,15.8,22.6,,00.0,0631.6,30.9
2021-02-03T07:06:00Z,00000200,01000000,0000.43,-000.02,-000.24,-000.35,-000.05,0000.29,-000.35,-000.34,-000.33,15.9,22.6,,00.0,0631.6,30.9
2021-02-03T07:07:00Z,00000200,01000000,-000.06,-000.03,0000.14,0000.17,0000.33,-000.05,-000.02,-000.12,-000.25,15.9,22.7,,00.0,0631.7,30.9
2021-02-03T07:08:00Z,00000200,01000000,0000.16,-000.07,0000.19,0000.11,0000.18,-000.23,-000.26,-000.14,0000.32,16.0,22.7,,00.0,0631.8,30.9
2021-02-03T07:09:00Z,00000200,01000000,0000.16,-000.22,0000.03,0000.22,-000.04,-000.09,-000.04,0000.16,0000.09,16.0,22.7,,00.0,0631.9,30.9
2021-02-03T07:10:00Z,00000200,01000000,0000.36,0000.15,-000.17,0000.08,0000.20,0000.18,-000.22,-000.41,-000.38,16.1,22.7,,00.0,0631.9,30.9
2021-02-03T07:11:00Z,00000200,01000000,0000.46,-000.07,0000.04,0000.07,0000.31,0000.18,-000.07,-000.50,-000.09,16.1,22.7,,00.0,0632.0,30.9
2021-02-03T07:12:00Z,00000200,01000000,0000.18,0000.12,0000.39,0000.14,-000.33,0000.04,-000.42,0000.03,0000.05,16.0,22.7,,00.0,0632.0,30.9
2021-02-03T07:13:00Z,00000200,01000000,0000.23,0000.06,0000.11,0000.28,0000.29,0000.01,-000.02,-000.28,-000.22,16.0,22.7,,00.0,0632.0,30.9
2021-02-03T07:14:00Z,00000200,01000000,0000.25,0000.04,-000.07,0000.10,-000.15,-000.14,-000.42,-000.06,-000.31,15.9,22.7,,00.0,0632.0,30.9
2021-02-03T07:15:00Z,00000200,01000000,0000.09,-000.34,-000.12,0000.31,0000.02,-000.02,-000.38,-000.60,0000.12,15.8,22.6,,00.0,0632.0,30.8
2021-02-03T07:16:00Z,00000200,01000000,0000.54,0000.08,-000.20,0000.54,-000.05,0000.26,0000.08,-000.24,-000.66,15.8,22.6,,00.0,0632.0,30.8
2021-02-03T07:17:00Z,00000200,01000000,-000.20,0000.14,0000.08,-000.15,-000.13,0000.29,0000.14,0000.14,0000.41,15.8,22.6,,00.0,0632.0,30.8
2021-02-03T07:18:00Z,00000200,01000000,0000.40,-000.12,0000.13,0000.01,-000.28,-000.06,-000.22,0000.01,0000.02,15.8,22.6,,00.0,0632.0,30.8
2021-02-03T07:19:00Z,00000200,01000000,0000.48,0000.07,-000.15,0000.20,0000.13,0000.20,0000.14,0000.48,0000.05,15.9,22.6,,00.0,0632.0,30.8
2021-02-03T07:20:00Z,00000200,01000000,0000.36,0000.06,-000.05,-000.19,-000.08,-000.05,0000.24,0000.11,0000.24,15.9,22.6,,00.0,0631.9,30.9
2021-02-03T07:21:00Z,00000200,01000000,0000.24,0000.14,0000.07,0000.31,0000.02,0000.03,0000.27,0000.08,0000.25,16.0,22.6,,00.0,0631.9,30.9
2021-02-03T07:22:00Z,00000200,01000000,-000.32,-000.06,-000.11,0000.02,0000.28,0000.10,0000.12,0000.13,-000.05,16.0,22.7,,00.0,0631.9,30.9
2021-02-03T07:23:00Z,00000200,01000000,0000.07,-000.12,0000.28,0000.49,0000.08,0000.08,0000.03,0000.01,0000.00,16.1,22.7,,00.0,0631.9,30.9
2021-02-03T07:24:00Z,00000200,01000000,0000.19,-000.02,0000.11,0000.02,0000.05,0000.23,-000.06,0000.30,0000.33,16.1,22.7,,00.0,0631.9,30.9
2021-02-03T07:25:00Z,00000200,01000000,0000.09,0000.02,0000.31,0000.25,0000.11,0000.31,0000.37,0000.03,-000.11,16.2,22.8,,00.0,0631.9,30.9
2021-02-03T07:26:00Z,00000200,01000000,-000.61,-000.15,0000.19,0000.25,0000.08,0000.22,-000.10,0000.21,-000.30,16.2,22.8,,00.0,0631.9,30.9
2021-02-03T07:27:00Z,00000200,01000000,0000.11,0000.02,-000.04,0000.02,0000.01,0000.22,0000.43,0000.50,0000.54,16.2,22.8,,00.0,0631.8,30.9
2021-02-03T07:28:00Z,00000200,01000000,0000.44,-000.02,-000.15,0000.19,0000.23,-000.19,0000.06,-000.37,0000.14,16.1,22.7,,00.0,0631.7,30.9
2021-02-03T07:29:00Z,00000200,01000000,0000.48,0000.10,0000.24,0000.32,0000.10,0000.32,0000.37,0000.08,-000.09,16.0,22.7,,00.0,0631.6,30.9
2021-02-03T07:30:00Z,00000200,01000000,-000.03,-000.12,0000.02,0000.00,0000.32,0000.02,0000.49,0000.33,0000.22,15.9,22.6,,00.0,0631.6,30.9
2021-02-03T07:31:00Z,00000200,01000000,0000.40,0000.07,0000.10,-000.26,-000.05,0000.21,-000.13,-000.04,0000.25,15.9,22.6,,00.0,0631.6,30.8
2021-02-03T07:32:00Z,00000200,01000000,-000.25,0000.12,-000.07,-000.04,0000.04,0000.16,0000.45,0000.24,-000.01,15.9,22.6,,00.0,0631.6,30.8
2021-02-03T07:33:00Z,00000200,01000000,-000.64,-000.15,0000.22,0000.29,-000.12,0000.14,0000.41,0000.86,0000.53,15.9,22.6,,00.0,0631.5,30.8
2021-02-03T07:34:00Z,00000200,01000000,-000.05,-000.04,-000.27,0000.11,0000.11,-000.11,0000.29,0000.24,0000.18,16.0,22.6,,00.0,0631.5,30.9
2021-02-03T07:35:00Z,00000200,01000000,0000.82,0000.03,0000.14,-000.07,0000.18,0000.20,0000.35,0000.19,0000.31,16.0,22.7,,00.0,0631.5,30.9
2021-02-03T07:36:00Z,00000200,01000000,0001.09,-000.16,0000.18,0000.36,-000.00,0000.30,0000.59,0000.66,0000.07,16.1,22.7,,00.0,0631.5,30.9
2021-02-03T07:37:00Z,00000200,01000000,0000.30,-000.20,0000.21,0000.50,0000.00,0000.12,0000.16,0000.07,0000.42,16.1,22.7,,00.0,0631.5,30.9
2021-02-03T07:38:00Z,00000200,01000000,0000.10,-000.00,0000.00,0000.51,-000.26,-000.09,0000.23,-000.26,-000.34,16.2,22.8,,00.0,0631.5,30.9
2021-02-03T07:39:00Z,00000200,01000000,-000.08,-000.01,-000.19,0000.61,0000.20,0000.01,0000.15,0000.85,0000.06,16.2,22.8,,00.0,0631.6,30.9
2021-02-03T07:40:00Z,00000200,01000000,0000.53,0000.08,0000.01,-000.18,0000.04,0000.02,-000.08,-000.11,0000.11,16.3,22.8,,00.0,0631.5,30.9
2021-02-03T07:41:00Z,00000200,01000000,0000.12,-000.09,-000.06,-000.06,-000.09,-000.04,0000.24,0000.20,0000.34,16.2,22.8,,00.0,0631.5,30.9
2021-02-03T07:42:00Z,00000200,01000000,0000.43,0000.06,0000.05,0000.20,0000.09,-000.21,0000.08,0000.16,-000.26,16.2,22.8,,00.0,0631.5,30.9
2021-02-03T07:43:00Z,00000200,01000000,0000.53,0000.02,-000.04,0000.53,-000.10,-000.06,0000.17,0000.10,0000.31,16.1,22.7,,00.0,0631.4,30.9
2021-02-03T07:44:00Z,00000200,01000000,0000.70,0000.28,0000.10,0000.48,0000.21,-000.13,-000.22,0000.28,0000.33,16.0,22.7,,00.0,0631.4,30.9
2021-02-03T07:45:00Z,00000200,01000000,0000.24,-000.19,-000.02,0000.54,0000.26,0000.20,0000.74,-000.19,-000.12,15.9,22.7,,00.0,0631.4,30.9
2021-02-03T07:46:00Z,00000200,01000000,0000.96,0000.11,0000.32,0000.86,-000.09,0000.08,0000.07,0000.12,0000.01,15.9,22.6,,00.0,0631.4,30.8
2021-02-03T07:47:00Z,00000200,01000000,0000.68,-000.01,-000.03,0000.04,0000.15,0000.13,0000.22,0000.35,-000.04,15.9,22.6,,00.0,0631.4,30.8
2021-02-03T07:48:00Z,00000200,01000000,0000.44,0000.05,-000.06,0000.06,0000.18,-000.05,0000.60,0000.28,0000.50,15.9,22.6,,00.0,0631.4,30.8
2021-02-03T07:49:00Z,00000200,01000000,-000.01,0000.31,-000.06,-000.03,0000.06,0000.08,0000.21,0000.55,0000.09,16.0,22.7,,00.0,0631.4,30.8
2021-02-03T07:50:00Z,00000200,01000000,0000.29,-000.01,0000.16,0000.34,-000.04,0000.06,-000.16,0000.10,0000.01,16.0,22.7,,00.0,0631.5,30.9
2021-02-03T07:51:00Z,00000200,01000000,-000.36,-000.30,-000.08,0000.70,0000.09,0000.02,0000.33,-000.05,-000.06,16.1,22.7,,00.0,0631.5,30.9
2021-02-03T07:52:00Z,00000200,01000000,0000.29,-000.10,-000.03,0000.09,0000.08,0000.14,-000.10,-000.16,0000.64,16.2,22.7,,00.0,0631.5,30.9
2021-02-03T07:53:00Z,00000200,01000000,-000.13,0000.09,-000.02,0000.42,0000.16,0000.09,0000.17,0000.54,-000.20,16.2,22.8,,00.0,0631.5,30.9
2021-02-03T07:54:00Z,00000200,01000000,-000.22,0000.20,0000.14,-000.15,0000.12,-000.18,-000.10,-000.29,-000.12,16.3,22.8,,00.0,0631.5,30.9
2021-02-03T07:55:00Z,00000200,01000000,0000.41,0000.10,-000.02,0000.17,0000.20,-000.14,0000.21,0000.05,0000.02,16.3,22.8,,00.0,0631.5,30.9
2021-02-03T07:56:00Z,00000200,01000000,0000.65,0000.14,-000.19,0000.64,-000.09,0000.25,-000.09,-000.03,0000.36,16.4,22.8,,00.0,0631.5,30.9
2021-02-03T07:57:00Z,00000200,41000000,,,,,,,-001.22,-001.11,-000.96,16.4,22.9,,00.0,0631.5,30.9
2021-02-03T07:58:00Z,00000200,61000000,,,,,,,0000.53,0000.61,0000.40,16.0,23.0,,00.0,0630.6,30.9
2021-02-03T07:59:00Z,00000200,21000000,,,,,,,0000.09,0000.23,-000.15,15.9,23.1,,00.0,0630.6,30.9
